Regional Weather Roundup
Issued by NWS Green Bay, WI

Home | Current Version | Previous Version | Text Only | Print | Product List | Glossary On
Versions: 1 2 3 4 5 6 7 8 9 10 11 12 13 14 15 16 17 18 19 20 21 22 23 24 25 26 27 28 29 30 31 32 33 34 35 36 37 38 39 40 41 42 43 44 45 46 47 48 49 50
050
ASUS43 KGRB 220011
RWRGRB

NORTH-CENTRAL AND NORTHEAST WISCONSIN REGIONAL WEATHER ROUNDUP
NATIONAL WEATHER SERVICE GREEN BAY WI
700 PM CDT MON AUG 21 2017

WIZ005-009-010>012-018-019-220100-
NORTH CENTRAL WISCONSIN

CITY           SKY/WX    TMP DP  RH WIND       PRES   REMARKS
IRONWOOD       CLOUDY    66  64  93 E3        29.88F
MANITOWISH WTR CLOUDY    71  69  94 S3        29.89F
ARBOR VITAE    CLOUDY    72  70  93 SW8       29.90F
EAGLE RIVER    CLOUDY    69  62  77 S5        29.90F
LAND O LAKES   CLOUDY    70  66  89 CALM      29.91F
RHINELANDER    CLOUDY    68  67  96 SE6       29.92F
PHILLIPS       CLOUDY    72  69  89 SW5       29.88F
ANTIGO         CLOUDY    67  66  97 SW3       29.94S
TOMAHAWK         N/A     67  66  96 CALM      29.91F
MERRILL        CLOUDY    70  70 100 SW3       29.91F
$$

WIZ013-073-220100-
NORTHEAST WISCONSIN

CITY           SKY/WX    TMP DP  RH WIND       PRES   REMARKS
IRON MOUNTAIN  TSTM      72  67  84 S8        29.89F
MARINETTE      CLOUDY    75  70  84 S5        29.90F
OCONTO         CLOUDY    75  69  79 SW3       29.89F
$$

WIZ017-030-035>037-045-220100-
CENTRAL WISCONSIN

CITY           SKY/WX    TMP DP  RH WIND       PRES   REMARKS
MEDFORD        CLOUDY    70  67  92 S7        29.90F
WAUSAU         CLOUDY    73  66  78 SW3       29.91S
MOSINEE        MOCLDY    72  64  78 SW7       29.93S
MARSHFIELD     CLOUDY    71  63  75 SW8       29.91F
WISC RAPIDS    CLOUDY    74  65  73 W7        29.93F
STEVENS POINT  CLOUDY    73  63  71 SW8       29.93S
WAUPACA        CLOUDY    78  66  66 SW8       29.92F
SHAWANO        CLOUDY    77  69  74 CALM      29.91R
CLINTONVILLE   CLOUDY    77  64  65 SW7       29.90F
WAUTOMA        CLOUDY    75  67  76 SW6         N/A
$$

WIZ038-039-048-051-220100-
FOX VALLEY

CITY           SKY/WX    TMP DP  RH WIND       PRES   REMARKS
NWS GREEN BAY  CLOUDY    76  70  82 S6        29.91F
APPLETON       MOCLDY    75  64  69 VRB6      29.92S
OSHKOSH        CLOUDY    76  70  82 S7        29.93S
FOND DU LAC    MOCLDY    77  69  76 SW3       29.94F
$$

WIZ022-050-052-220100-
EAST CENTRAL WISCONSIN

CITY           SKY/WX    TMP DP  RH WIND       PRES   REMARKS
EPHRAIM        FAIR      71  67  88 S5        29.90F
WASHINGTON ISL FAIR      69  67  93 S3        29.90F
STURGEON BAY   CLOUDY    73  68  84 S10       29.92F
MANITOWOC        N/A    N/A N/A N/A MISG        N/A
SHEBOYGAN      MOCLDY    75  72  90 S10       29.94S
$$

LMZ563-521-522-541>543-220100-
LAKESHORE

STATION/POSITION TIME  TEMP    WIND        PRES    VSBY  WAVE
                       AIR SEA DIR/SP/G                  HT/PER
                 (UTC) (F)     (DEG/KT/KT) (MB)    (MI)  (FT/S)
SHEBOYGAN LKSHOR 0000   73     180/ 14/ 15 1013.3S
KEWAUNEE LKSHORE 2342   69     180/  8/ 10 1012.6F
NORTHPORT PIER   2340   71     150/  4/  5 1012.5F
N MID LAKE BUOY  2350   70 69  220/  6/  6 1013.5F         1
S GREEN BAY BUOY 0000   76 74  210/  4/  6 1012.6
SISTER BAY LKSHO 0003   72     150/  9/ 10   N/A
MENOMINEE LKSHOR 2342   73     140/  3/  3 1012.1F
$$




USA.gov is the U.S. government's official web portal to all federal, state and local government web resources and services.